Regional Weather Roundup
Issued by NWS

Home | Current Version | Previous Version | Graphics & Text | Print | Product List | Glossary On
Versions: 1 2 3 4 5 6 7 8 9 10 11 12 13 14 15 16 17 18 19 20 21 22 23 24 25 26 27 28 29 30 31 32 33 34 35 36 37 38 39 40 41 42 43 44 45 46 47 48 49 50
000
ASUS44 KMEG 221100
RWRTN
TENNESSEE HOURLY STATE WEATHER ROUNDUP
NATIONAL WEATHER SERVICE MEMPHIS TN
500 AM CST MON DEC 22 2014

TNZ002-004-019-021-049-052-054-088>092-221200-
WEST TENNESSEE

CITY           SKY/WX    TMP DP  RH WIND       PRES   REMARKS
MEMPHIS INTL   DRZL/FOG  49  47  93 S8        29.84F VSB 1
NWS MEMPHIS      N/A     47 N/A N/A MISG        N/A
JACKSON        CLOUDY    50  45  83 S7        29.88F
DYERSBURG      CLOUDY    46  34  61 SE8       29.87F
UNION CITY     CLOUDY    43  43 100 SE6       29.86S
PARIS          CLOUDY    41  39  93 SE8       29.88F
LEXINGTON      CLOUDY    46  45  93 SE6       29.88F
SAVANNAH       CLOUDY    48  48 100 SE3       29.89F
$$

TNZ008-025-027-028-033-062-065-066-221200-
NORTH MIDDLE TENNESSEE

CITY           SKY/WX    TMP DP  RH WIND       PRES   REMARKS
NASHVILLE      CLOUDY    48  44  86 SE7       29.96S
CLARKSVILLE    MOCLDY    42  40  92 SE7       29.92F
COOKEVILLE     CLOUDY    48  43  81 S3        29.97S
CROSSVILLE     CLOUDY    45  39  79 SE6       29.99S
$$

TNZ061-075-076-078-094-096-097-221200-
SOUTH MIDDLE TENNESSEE

CITY           SKY/WX    TMP DP  RH WIND       PRES   REMARKS
FAYETTEVILLE   CLOUDY    46  43  87 MISG      29.95F
TULLAHOMA      CLOUDY    46  43  87 SE8       29.96F
WINCHESTER     CLOUDY    46  43  87 SE6       29.97F
SHELBYVILLE    CLOUDY    48  45  87 SE7       29.96F
$$

TNZ017-018-042-046-047-221200-
NORTHEAST TENNESSEE

CITY           SKY/WX    TMP DP  RH WIND       PRES   REMARKS
TRI CITIES     CLOUDY    41  36  82 CALM      30.05R
ELIZABETHTON   CLOUDY    43  37  81 E6        30.03F
$$

TNZ012-013-036-069-073-074-221200-
CENTRAL EAST TENNESSEE

CITY           SKY/WX    TMP DP  RH WIND       PRES   REMARKS
KNOXVILLE      CLOUDY    43  38  82 E3        30.02F
OAK RIDGE      CLOUDY    45  38  76 CALM      30.03F
GATLINBURG     CLOUDY    37  36  93 CALM      30.02S
$$

TNZ083-085-099-221200-
SOUTHEAST TENNESSEE

CITY           SKY/WX    TMP DP  RH WIND       PRES   REMARKS
CHATTANOOGA    CLOUDY    46  40  79 CALM      30.02S
$$

SKY/WX REPORTED AS FAIR MEANS FEW OR NO CLOUDS BELOW
12 THOUSAND FEET.




USA.gov is the U.S. government's official web portal to all federal, state and local government web resources and services.